Regional Weather Roundup
Issued by NWS Charleston, WV

Home | Current Version | Previous Version | Graphics & Text | Print | Product List | Glossary On
Versions: 1 2 3 4 5 6 7 8 9 10 11 12 13 14 15 16 17 18 19 20 21 22 23 24 25 26 27 28 29 30 31 32 33 34 35 36 37 38 39 40 41 42 43 44 45 46 47 48 49 50
000
ASUS41 KRLX 280410
RWRRLX
West Virginia Regional Weather Roundup
National Weather Service Charleston WV
1200 AM EDT TUE JUL 28 2015

Note: "fair" indicates few or no clouds below 12,000 feet with no
significant weather and/or obstructions to visibility.

WVZ003-280500-
Northern Panhandle of West Virginia

CITY           SKY/WX    TMP DP  RH WIND       PRES   REMARKS
WHEELING       PTCLDY    73  66  78 CALM      30.04R
$$

WVZ009-280500-
Northwest West Virginia

CITY           SKY/WX    TMP DP  RH WIND       PRES   REMARKS
PARKERSBURG    PTCLDY    72  70  93 CALM      30.04S FOG
$$

WVZ006-280500-
Western West Virginia

CITY           SKY/WX    TMP DP  RH WIND       PRES   REMARKS
HUNTINGTON     MOCLDY    73  73 100 CALM      30.01S
$$

WVZ015-280500-
West Central West Virginia

CITY           SKY/WX    TMP DP  RH WIND       PRES   REMARKS
CHARLESTON     MOCLDY    71  69  93 CALM      30.02R
$$

WVZ022-031-280500-
North Central West Virginia

CITY           SKY/WX    TMP DP  RH WIND       PRES   REMARKS
CLARKSBURG     PTCLDY    71  69  93 CALM      30.04R
MORGANTOWN     CLEAR     76  68  76 CALM      30.04S
$$

WVZ025-035-042-045-280500-
Southern West Virginia

CITY           SKY/WX    TMP DP  RH WIND       PRES   REMARKS
BECKLEY        CLEAR     71  67  87 CALM      30.11R
LOGAN          CLOUDY    73  73 100 CALM      30.02S FOG
BLUEFIELD      PTCLDY    74  66  76 CALM      30.13S
LEWISBURG      CLEAR     68  66  93 CALM      30.10S FOG
$$

WVZ047-280500-
Northern Mountains of West Virginia

CITY           SKY/WX    TMP DP  RH WIND       PRES   REMARKS
ELKINS         CLOUDY    71  67  87 CALM      30.09R
$$

WVZ052-280500-
Eastern Panhandle of West Virginia

CITY           SKY/WX    TMP DP  RH WIND       PRES   REMARKS
MARTINSBURG    MOCLDY    74  71  91 CALM      30.03R
PETERSBURG     PTCLDY   N/A N/A N/A CALM      30.05S HAZE
$$



USA.gov is the U.S. government's official web portal to all federal, state and local government web resources and services.